• Processing (Info)

  • MPEC 2006-T09 : 2006 SZ217

    The following Minor Planet Electronic Circular may be linked-to from your own Web pages, but must not otherwise be redistributed electronically.

    A form allowing access to any MPEC is at the bottom of this page.


    Read MPEC 2006-T08 Read MPEC 2006-T10


    M.P.E.C. 2006-T09                                Issued 2006 Oct. 2, 13:10 UT
    
         The Minor Planet Electronic Circulars contain information on unusual
             minor planets and routine data on comets.  They are published
       on behalf of Commission 20 of the International Astronomical Union by the
              Minor Planet Center, Smithsonian Astrophysical Observatory,
                              Cambridge, MA 02138, U.S.A.
    
                 Prepared using the Tamkin Foundation Computer Network
    
                                  MPC@CFA.HARVARD.EDU
              URL http://cfa-www.harvard.edu/iau/mpc.html  ISSN 1523-6714
    
                                      2006 SZ217
    
    Observations:
         K06SL7Z* C2006 09 30.50562 07 59 11.66 +16 16 20.2          20.3 V ET009291
         K06SL7Z  C2006 09 30.50948 07 59 12.27 +16 16 12.1          20.3 V ET009291
         K06SL7Z  C2006 09 30.51342 07 59 12.91 +16 16 04.1          20.3 V ET009291
         K06SL7Z  C2006 10 01.45241 08 01 43.24 +15 43 28.9          20.0 R ET009734
         K06SL7Z  C2006 10 01.45534 08 01 43.78 +15 43 21.7          19.6 R ET009734
         K06SL7Z  C2006 10 01.45572 08 01 43.96 +15 43 21.8          19.8 V ET009G96
         K06SL7Z  C2006 10 01.45834 08 01 44.21 +15 43 15.9          19.7 R ET009734
         K06SL7Z  C2006 10 01.46402 08 01 45.26 +15 43 04.6          19.7 V ET009G96
         K06SL7Z  C2006 10 01.47227 08 01 46.56 +15 42 47.4          19.7 V ET009G96
         K06SL7Z  C2006 10 01.48049 08 01 47.85 +15 42 30.2          19.8 V ET009G96
         K06SL7Z tC2006 10 01.49290 08 01 49.80 +15 42 05.0          20.4 V ET009291
         K06SL7Z tC2006 10 01.49726 08 01 50.49 +15 41 55.4          19.9 V ET009291
         K06SL7Z tC2006 10 01.50106 08 01 51.11 +15 41 47.7          20.3 V ET009291
         K06SL7Z IC2006 10 02.19115 08 03 40.58 +15 17 39.8                 ET009J95
         K06SL7Z IC2006 10 02.19382 08 03 41.08 +15 17 36.0                 ET009J95
         K06SL7Z  C2006 10 02.19707 08 03 41.52 +15 17 27.9          19.9 R ET009J95
         K06SL7Z  C2006 10 02.47315 08 04 25.36 +15 07 48.8          19.8 R ET009854
         K06SL7Z  C2006 10 02.48274 08 04 26.91 +15 07 30.8          19.8 R ET009854
         K06SL7Z  C2006 10 02.48486 08 04 27.12 +15 07 25.7          20.5 V ET009291
         K06SL7Z  C2006 10 02.48867 08 04 27.73 +15 07 17.3          20.3 V ET009291
         K06SL7Z  C2006 10 02.49232 08 04 28.23 +15 07 09.1          19.8 R ET009854
         K06SL7Z  C2006 10 02.49240 08 04 28.29 +15 07 09.9          20.7 V ET009291
    
    Observer details:
    291 LPL/Spacewatch II.  Observers T. H. Bressi, M. T. Read, A. F. Tubbiolo.
        Measurer T. H. Bressi.  1.8-m f/2.7 reflector + CCD.
    734 Farpoint Observatory.  Observer G. Hug.  Measurer D. Tibbets.  0.7-m
        reflector + CCD.
    854 Sabino Canyon Observatory, Tucson.  Observer J. E. McGaha.  0.36-m f/10.0
        Schmidt-Cassegrain + CCD.
    G96 Mt. Lemmon Survey.  Observer R. A. Kowalski.  Measurers E. C. Beshore,
        E. J. Christensen, G. J. Garradd, A. R. Gibbs, A. D. Grauer, R. E. Hill,
        R. A. Kowalski, S. M. Larson, R. H. McNaught.  1.5-m reflector + CCD.
    J95 Great Shefford.  Observer P. Birtwhistle.  0.40-m f/6.0 Schmidt-Cassegrain
        + CCD.
    
    Orbital elements:
    2006 SZ217                                               Earth MOID = 0.2104 AU
    Epoch 2006 Sept. 22.0 TT = JDT 2454000.5                MPC
    M  10.86302              (2000.0)            P               Q
    n   0.47052021     Peri.  161.54637     +0.70041957     -0.57290444
    a   1.6371326      Node   241.11464     +0.57822246     +0.80510621
    e   0.2745194      Incl.   29.08788     +0.41841512     -0.15357241
    P   2.09           H   17.5           G   0.15           U   9
    Residuals in seconds of arc
    060930 291  0.1-  0.1+    061001 G96  0.1+  0.1-    061002 854  0.8+  1.2-
    060930 291  0.1-  0.0     061001 G96  0.0   0.2-    061002 854  1.6+  0.9+
    060930 291  0.1+  0.1+    061001 291  0.1-  0.3+    061002 291  0.2-  0.2+
    061001 734  1.2-  0.5+    061001 291  0.1-  0.2-    061002 291  0.0   0.2-
    061001 734  0.1-  0.6-    061001 291  0.3+  0.0     061002 854  0.9-  0.7-
    061001 G96  0.3+  0.2-    061002 J95  0.5-  0.6-    061002 291  0.3-  0.2+
    061001 734  0.7-  0.2-    061002 J95  0.7+  1.2+
    061001 G96  0.1+  0.1-    061002 J95  0.3-  0.1-
    
    Ephemeris:
    2006 SZ217               a,e,i = 1.64, 0.27, 29                  q = 1.1877
    Date    TT    R. A. (2000) Decl.     Delta      r     Elong.  Phase     V
    2006 10 02    08 03.17   +15 24.5    1.141    1.218    69.0    50.1    20.1
    2006 10 12    08 28.32   +09 24.6    1.113    1.239    71.6    49.9    20.1
    2006 10 22    08 51.04   +03 08.6    1.087    1.263    74.5    49.4    20.0
    2006 11 01    09 11.39   -03 16.1    1.065    1.292    77.7    48.7    20.0
    2006 11 11    09 29.39   -09 42.3    1.045    1.323    81.0    47.7    20.0
    2006 11 21    09 44.93   -16 03.4    1.028    1.357    84.6    46.5    20.0
    2006 12 01    09 57.72   -22 12.6    1.012    1.392    88.3    45.1    20.0
    2006 12 11    10 07.39   -28 03.2    0.999    1.429    92.2    43.5    20.0
    2006 12 21    10 13.36   -33 28.4    0.986    1.467    96.3    41.8    19.9
    2006 12 31    10 14.94   -38 19.3    0.975    1.505   100.5    40.0    19.9
    2007 01 10    10 11.53   -42 25.6    0.966    1.544   104.8    38.0    19.9
    2007 01 20    10 02.85   -45 34.7    0.958    1.582   109.0    36.0    19.9
    2007 01 30    09 49.48   -47 32.5    0.955    1.619   113.2    34.0    19.9
    2007 02 09    09 33.32   -48 08.6    0.956    1.656   117.0    32.1    19.9
    2007 02 19    09 17.20   -47 20.0    0.965    1.692   120.1    30.4    19.9
    2007 03 01    09 04.07   -45 14.5    0.982    1.727   122.2    29.0    19.9
    2007 03 11    08 55.78   -42 10.3    1.010    1.761   123.0    28.2    20.0
    2007 03 21    08 52.87   -38 29.3    1.050    1.793   122.4    28.0    20.1
    2007 03 31    08 55.02   -34 33.6    1.102    1.824   120.4    28.2    20.3
    2007 04 10    09 01.41   -30 41.6    1.167    1.853   117.3    28.7    20.4
    2007 04 20    09 11.15   -27 05.9    1.244    1.881   113.2    29.4    20.6
    2007 04 30    09 23.50   -23 55.1    1.331    1.907   108.5    30.1    20.8
    2007 05 10    09 37.76   -21 13.1    1.429    1.932   103.4    30.6    21.0
    2007 05 20    09 53.43   -19 00.5    1.534    1.954    98.2    30.8    21.2
    2007 05 30    10 10.14   -17 16.6    1.645    1.975    92.9    30.8    21.4
    2007 06 09    10 27.56   -15 59.0    1.761    1.995    87.5    30.6    21.5
    2007 06 19    10 45.50   -15 04.9    1.880    2.012    82.2    30.0    21.7
    2007 06 29    11 03.81   -14 31.4    2.000    2.028    76.9    29.2    21.8
    2007 07 09    11 22.37   -14 15.5    2.119    2.041    71.7    28.2    21.9
    2007 07 19    11 41.14   -14 14.3    2.236    2.053    66.5    27.0    22.0
    
    Timothy B. Spahr             (C) Copyright 2006 MPC           M.P.E.C. 2006-T09
    

    Read MPEC 2006-T08 Read MPEC 2006-T10


    MPEC number:

    Enter an MPEC number in one of the following forms:

    • 1997-B01 (the full form)
    • J97B01 (the packed version of the full form)
    • B01 (the abbreviated form)